Tracking 19644 objects as of 24-Apr-2019
HD Live streaming from Space Station
objects crossing your sky now

COSMOS 1341

Track COSMOS 1341 now!
COSMOS 1341 is classified as:


NORAD ID: 13080
Int'l Code: 1982-016A
Perigee: 2,881.8 km
Apogee: 37,531.4 km
Inclination: 67.5 °
Period: 718.7 minutes
Semi major axis: 26577 km
RCS: 8.091 m2 (large)
Launch date: March 3, 1982
Source: Commonwealth of Independent States (former USSR) (CIS)
Launch site: PLESETSK MISSILE AND SPACE COMPLEX (PKMTR)
aabbcc
Your satellite tracking list
Your tracking list is empty




NASA's NSSDC Master Catalog

Two Line Element Set (TLE):
1 13080U 82016A   19114.07694056 -.00000910  00000-0  00000+0 0  9992
2 13080  67.4612 178.0472 6518569  25.1776 356.0261  2.00368263182438
Source of the keplerian elements: AFSPC